Weather History for KROX - January, 2013

Change the Weather History Date:

Sunday, January 6, 2013

  Actual Average Record
Temperature  
Mean Temperature 7 °F -  
Max Temperature 21 °F 9 °F 44 °F (2008)
Min Temperature -7 °F -8 °F -47 °F (1968)
Degree Days  
Heating Degree Days 58    
Moisture  
Dew Point 3 °F    
Average Humidity 78    
Maximum Humidity 86    
Minimum Humidity 71    
Precipitation  
Precipitation 0.00 in - - ()
Sea Level Pressure  
Sea Level Pressure 30.00 in    
Wind  
Wind Speed 5 mph (South)    
Max Wind Speed 22 mph    
Max Gust Speed 29 mph    
Visibility 10 miles    
Events      
Averages and records for this station are not official NWS values.
T = Trace of Precipitation, MM = Missing Value Source: NWS Daily Summary

Daily Weather History Graph

Daily Weather History Graph

Search for Another Location

Airport or City:

Trip Planner

Search our weather history database for the weather conditions in past years. The results will help you decide how hot, cold, wet, or windy it might be!

Date:

Astronomy

Jan. 06, 2013 Rise Set
Actual Time 8:15 AM CST 4:42 PM CST
Civil Twilight 7:38 AM CST 5:19 PM CST
Nautical Twilight 6:58 AM CST 5:59 PM CST
Astronomical Twilight 6:20 AM CST 6:37 PM CST
Moon 2:19 AM CST (1/6) 12:20 PM CST (1/6)
Length of Visible Light 9h 40m
Length of Day
8h 27m
Waning Crescent, 33% of the Moon is Illuminated
Jan 6
Waning Crescent
Jan 11
New
Jan 18
First Quarter
Jan 26
Full
Feb 3
Last Quarter

Hourly Weather History & Observations

Time (CST) Temp. Windchill Dew Point Humidity Pressure Visibility Wind Dir Wind Speed Gust Speed Precip Events Conditions
12:14 AM 6.8 °F -2.0 °F -0.4 °F 72% 30.06 in 10.0 mi WNW 4.6 mph - N/A   Scattered Clouds
12:34 AM 6.8 °F - -0.4 °F 72% 30.06 in 10.0 mi Calm Calm - N/A   Clear
12:54 AM 6.8 °F -0.1 °F -0.4 °F 72% 30.06 in 10.0 mi WSW 3.5 mph - N/A   Clear
1:14 AM 3.2 °F -4.2 °F -2.2 °F 78% 30.06 in 10.0 mi West 3.5 mph - N/A   Clear
1:35 AM 3.2 °F -4.2 °F -0.4 °F 85% 30.07 in 10.0 mi West 3.5 mph - N/A   Clear
1:54 AM 3.2 °F - -2.2 °F 78% 30.07 in 10.0 mi Calm Calm - N/A   Clear
2:14 AM 3.2 °F -4.2 °F -2.2 °F 78% 30.08 in 10.0 mi West 3.5 mph - N/A   Clear
2:35 AM 3.2 °F - -0.4 °F 85% 30.09 in 10.0 mi Calm Calm - N/A   Scattered Clouds
2:54 AM 6.8 °F -0.1 °F 1.4 °F 79% 30.11 in 10.0 mi WNW 3.5 mph - N/A   Mostly Cloudy
3:14 AM 6.8 °F - 1.4 °F 79% 30.11 in 10.0 mi Calm Calm - N/A   Overcast
3:35 AM 6.8 °F - 1.4 °F 79% 30.10 in 10.0 mi Calm Calm - N/A   Mostly Cloudy
4:14 AM 3.2 °F - -2.2 °F 78% 30.10 in 10.0 mi Calm Calm - N/A   Clear
4:35 AM 3.2 °F - -2.2 °F 78% 30.10 in 10.0 mi Calm Calm - N/A   Clear
4:54 AM 1.4 °F - -2.2 °F 85% 30.10 in 10.0 mi Calm Calm - N/A   Clear
5:34 AM -0.4 °F - -5.8 °F 78% 30.11 in 7.0 mi Calm Calm - N/A   Clear
6:34 AM -2.2 °F - -9.4 °F 71% 30.13 in 10.0 mi Calm Calm - N/A   Clear
6:54 AM -2.2 °F - -7.6 °F 78% 30.13 in 10.0 mi Calm Calm - N/A   Clear
7:14 AM -2.2 °F - -9.4 °F 71% 30.13 in 10.0 mi Calm Calm - N/A   Clear
7:34 AM -7.6 °F - -14.8 °F 71% 30.13 in 10.0 mi Calm Calm - N/A   Clear
7:54 AM -5.8 °F - -11.2 °F 77% 30.13 in 10.0 mi Calm Calm - N/A   Clear
8:14 AM -5.8 °F - -11.2 °F 77% 30.13 in 10.0 mi Calm Calm - N/A   Clear
8:34 AM -5.8 °F - -11.2 °F 77% 30.13 in 10.0 mi Calm Calm - N/A   Clear
8:54 AM -5.8 °F - -11.2 °F 77% 30.14 in 10.0 mi Calm Calm - N/A   Clear
9:14 AM -5.8 °F - -11.2 °F 77% 30.14 in 10.0 mi Calm Calm - N/A   Clear
9:34 AM -5.8 °F - -9.4 °F 84% 30.14 in 10.0 mi Calm Calm - N/A   Clear
9:54 AM -5.8 °F - -11.2 °F 77% 30.14 in 10.0 mi Calm Calm - N/A   Clear
10:14 AM -2.2 °F - -7.6 °F 78% 30.14 in 10.0 mi Calm Calm - N/A   Clear
10:34 AM -0.4 °F - -7.6 °F 72% 30.14 in 10.0 mi Calm Calm - N/A   Clear
10:54 AM -0.4 °F - -5.8 °F 78% 30.13 in 10.0 mi Calm Calm - N/A   Clear
11:14 AM 1.4 °F -6.2 °F -2.2 °F 85% 30.12 in 10.0 mi East 3.5 mph - N/A   Clear
11:34 AM 3.2 °F - -2.2 °F 78% 30.11 in 10.0 mi Calm Calm - N/A   Clear
12:14 PM 6.8 °F - 1.4 °F 79% 30.07 in 10.0 mi Calm Calm - N/A   Clear
12:34 PM 8.6 °F - 3.2 °F 79% 30.06 in 10.0 mi Calm Calm - N/A   Clear
12:54 PM 8.6 °F 2.0 °F 3.2 °F 79% 30.06 in 10.0 mi SE 3.5 mph - N/A   Clear
1:14 PM 8.6 °F - 3.2 °F 79% 30.06 in 10.0 mi Calm Calm - N/A   Clear
1:34 PM 10.4 °F - 3.2 °F 73% 30.05 in 10.0 mi Calm Calm - N/A   Clear
1:54 PM 12.2 °F 6.1 °F 6.8 °F 79% 30.03 in 10.0 mi SE 3.5 mph - N/A   Clear
2:14 PM 15.8 °F 6.1 °F 8.6 °F 73% 30.02 in 10.0 mi SSE 6.9 mph - N/A   Clear
2:34 PM 15.8 °F 7.2 °F 8.6 °F 73% 30.02 in 10.0 mi SSE 5.8 mph - N/A   Clear
2:55 PM 15.8 °F 2.7 °F 10.4 °F 79% 30.00 in 10.0 mi SSE 11.5 mph - N/A   Clear
3:14 PM 17.6 °F 5.7 °F 10.4 °F 73% 29.99 in 10.0 mi South 10.4 mph - N/A   Clear
3:34 PM 17.6 °F 6.4 °F 10.4 °F 73% 29.99 in 10.0 mi South 9.2 mph - N/A   Clear
3:55 PM 17.6 °F 6.4 °F 10.4 °F 73% 29.99 in 10.0 mi South 9.2 mph - N/A   Clear
4:14 PM 15.8 °F 3.4 °F 10.4 °F 79% 29.98 in 10.0 mi South 10.4 mph - N/A   Scattered Clouds
4:34 PM 17.6 °F 5.0 °F 12.2 °F 79% 29.97 in 10.0 mi South 11.5 mph - N/A   Overcast
4:55 PM 17.6 °F 2.2 °F 12.2 °F 79% 29.95 in 10.0 mi South 17.3 mph - N/A   Overcast
5:14 PM 17.6 °F 2.2 °F 12.2 °F 79% 29.94 in 10.0 mi South 17.3 mph - N/A   Overcast
5:34 PM 17.6 °F 2.7 °F 12.2 °F 79% 29.92 in 10.0 mi South 16.1 mph - N/A   Overcast
6:14 PM 17.6 °F 2.2 °F 12.2 °F 79% 29.90 in 10.0 mi South 17.3 mph - N/A   Overcast
6:34 PM 17.6 °F 1.7 °F 12.2 °F 79% 29.88 in 10.0 mi South 18.4 mph - N/A   Overcast
6:54 PM 17.6 °F 3.2 °F 12.2 °F 79% 29.87 in 10.0 mi South 15.0 mph - N/A   Scattered Clouds
7:14 PM 17.6 °F 2.7 °F 12.2 °F 79% 29.85 in 10.0 mi South 16.1 mph - N/A   Clear
7:34 PM 17.6 °F 1.7 °F 12.2 °F 79% 29.82 in 10.0 mi South 18.4 mph - N/A   Clear
7:54 PM 17.6 °F 0.5 °F 12.2 °F 79% 29.80 in 10.0 mi South 21.9 mph - N/A   Clear
8:14 PM 17.6 °F 0.9 °F 12.2 °F 79% 29.77 in 10.0 mi South 20.7 mph 28.8 mph N/A   Clear
8:34 PM 17.6 °F 1.7 °F 12.2 °F 79% 29.76 in 10.0 mi South 18.4 mph - N/A   Clear
9:14 PM 17.6 °F 1.7 °F 12.2 °F 79% 29.76 in 10.0 mi South 18.4 mph - N/A   Scattered Clouds
9:34 PM 19.4 °F 2.8 °F 12.2 °F 74% 29.73 in 10.0 mi South 21.9 mph - N/A   Mostly Cloudy
9:54 PM 19.4 °F 3.6 °F 12.2 °F 74% 29.72 in 10.0 mi South 19.6 mph - N/A   Mostly Cloudy
10:14 PM 19.4 °F 3.2 °F 14.0 °F 80% 29.70 in 10.0 mi South 20.7 mph 24.2 mph N/A   Scattered Clouds
10:34 PM 19.4 °F 5.0 °F 14.0 °F 80% 29.69 in 10.0 mi South 16.1 mph - N/A   Clear
10:54 PM 19.4 °F 5.5 °F 15.8 °F 86% 29.69 in 10.0 mi SSW 15.0 mph - N/A   Clear
11:34 PM 21.2 °F 5.6 °F 15.8 °F 80% 29.66 in 10.0 mi SSW 20.7 mph - N/A   Clear
11:54 PM 21.2 °F 5.6 °F 15.8 °F 80% 29.65 in 10.0 mi SSW 20.7 mph 26.5 mph N/A   Clear